Temp
69 69 68 68 68 68 68 69 69 69 69 68 67 66 65 63 62 59 57 56 50 49 50 50 49 50 49 48 48 49 48 49 45 46 49 51 51 52 50 51 50 47 46
68 68 67 67 67 65 68 69 69 69 69 68 67 66 63 62 61 58 53 52 49 47 47 48 48 49 48 49 48 47 47 48 46 43 46 47 48 49 48 48 48 50 46
68 67 66 66 66 65 64 66 66 67 67 67 67 64 60 57 56 56 55 51 48 45 46 46 47 47 46 46 46 46 46 47 46 43 42 45 45 46 46 48 47 46 48
67 66 64 64 64 65 64 62 61 65 64 66 66 64 61 57 55 50 50 49 45 44 44 44 45 45 45 45 44 45 45 43 43 40 41 41 42 44 45 41 41 43 39
65 64 64 64 65 63 60 62 64 63 64 65 64 63 60 55 52 50 46 43 42 44 41 42 43 44 44 43 44 43 43 41 40 38 39 39 38 38 37 39 38 35 35
63 63 64 64 65 65 64 60 60 63 64 63 63 62 60 56 45 41 42 42 40 40 39 39 40 42 40 39 40 40 42 40 37 36 35 35 36 37 37 35 34 31 29
62 63 63 64 64 64 65 65 63 61 62 61 61 61 60 59 43 41 40 42 40 39 38 38 37 38 38 38 37 36 36 36 35 37 34 35 34 35 34 33 33 33 32
61 61 62 62 62 63 63 63 62 61 60 59 59 59 58 54 41 40 39 43 39 37 38 38 37 36 36 35 35 34 34 34 35 34 36 34 35 35 36 36 35 34 34
59 59 61 61 60 60 59 59 59 58 56 54 55 54 51 47 39 38 38 39 37 36 36 37 36 34 35 37 33 32 32 32 34 36 35 36 35 35 36 35 32 32 30
56 56 58 59 58 57 55 54 55 53 50 47 43 44 43 43 39 38 38 38 35 34 34 35 35 34 34 33 32 32 31 31 32 32 32 34 35 36 36 37 36 32 31
54 54 53 53 52 52 50 51 49 47 44 42 42 41 42 42 41 38 38 37 35 33 33 32 32 33 33 34 34 33 32 32 32 31 31 32 32 33 33 35 36 35 34
50 48 47 48 49 50 48 47 43 41 41 39 39 38 41 39 37 38 37 37 36 33 32 32 32 33 34 33 33 32 32 32 32 31 30 30 31 30 31 31 31 32 34
45 44 43 46 46 44 40 38 38 38 38 37 38 38 39 37 38 36 36 35 35 33 33 33 33 33 33 32 32 32 32 33 32 31 30 31 31 31 30 30 30 30 30
39 36 38 37 37 37 38 37 36 35 34 34 35 35 35 37 36 35 34 34 33 32 32 32 32 32 32 32 32 34 36 36 35 33 32 32 31 31 30 30 29 29 27
37 36 37 36 35 35 35 35 35 35 35 34 35 35 35 34 34 34 34 32 33 33 32 32 31 31 30 31 32 34 34 35 33 33 32 31 31 32 30 32 31 30 29
35 35 37 36 35 34 34 34 35 34 33 33 34 33 34 35 35 34 34 34 33 32 32 31 30 30 29 30 31 32 34 34 34 34 33 33 32 31 30 31 32 30 29
34 35 37 35 35 34 34 34 33 34 34 33 33 34 34 34 34 34 34 33 32 32 32 31 31 30 30 31 32 32 32 35 35 34 34 33 32 32 30 30 30 30 30
34 33 35 35 34 34 34 33 33 32 32 34 33 33 34 34 34 34 33 32 31 33 33 32 31 31 31 31 32 33 34 33 34 34 33 32 32 32 30 30 30 29 29
33 33 34 34 34 34 34 34 33 33 33 33 34 32 33 33 33 33 32 33 32 32 32 32 32 32 32 34 33 33 32 32 32 32 32 32 31 32 30 31 31 30 29
35 33 32 34 35 34 34 34 34 33 33 33 33 32 32 33 31 31 32 33 33 32 32 32 32 32 33 32 32 32 31 31 31 32 31 32 31 32 31 30 30 28 27
36 35 34 36 35 34 34 34 35 34 33 33 32 33 32 33 32 32 32 32 32 32 32 32 32 32 32 32 32 32 32 31 32 32 32 31 30 28 30 30 30 29 28
35 34 35 36 35 34 34 34 35 35 34 33 32 32 32 33 32 32 32 32 32 32 32 32 32 32 32 32 32 32 31 31 32 32 31 31 30 30 29 29 28 27 26
36 34 34 35 35 34 33 33 34 34 34 33 33 32 33 32 32 32 32 32 32 32 32 32 32 32 33 33 33 34 32 32 32 32 31 30 29 28 27 27 26 25 24
35 33 33 35 34 34 33 33 33 33 34 33 32 32 33 32 32 32 32 31 32 32 32 32 33 32 32 32 33 34 35 33 33 32 31 29 28 27 27 26 26 23 21
34 33 32 33 34 33 33 33 32 33 32 32 32 32 32 32 32 31 31 31 31 31 32 32 32 32 32 32 32 32 31 31 31 30 30 29 27 26 25 23 21 21 19
34 34 33 33 33 33 32 32 32 32 32 32 32 32 32 32 32 31 31 31 31 31 31 31 31 31 31 32 31 29 28 26 26 27 28 27 24 23 22 20 18 17 16
MSLP
1010.38 1010.13 1009.84 1009.50 1009.19 1008.92 1008.59 1008.23 1007.87 1007.63 1007.47 1007.24 1007.32 1007.34 1007.31 1007.55 1007.68 1007.88 1007.77 1007.76 1007.95 1007.96 1007.88 1007.57 1007.38 1007.50 1007.87 1008.32 1008.83 1009.26 1009.69 1009.96 1010.16 1011.60 1012.29 1013.13 1014.42 1015.69 1017.99 1018.77 1019.99 1021.16 1022.48
1010.37 1009.91 1009.71 1009.41 1008.95 1008.61 1008.04 1007.50 1007.30 1007.20 1007.06 1006.80 1006.96 1006.84 1006.92 1007.12 1007.17 1007.33 1007.54 1007.34 1007.53 1007.53 1007.41 1007.27 1006.82 1006.77 1006.83 1007.30 1007.73 1008.19 1008.69 1009.28 1009.77 1010.67 1011.69 1012.62 1013.34 1015.45 1017.08 1017.81 1019.27 1020.28 1022.20
1010.16 1009.96 1009.58 1009.30 1009.01 1008.90 1008.61 1008.01 1007.88 1007.29 1006.90 1006.75 1006.46 1006.41 1006.64 1006.84 1007.06 1007.19 1007.08 1007.28 1007.29 1007.25 1006.89 1006.90 1006.49 1006.30 1006.12 1006.43 1006.97 1007.56 1008.08 1008.68 1009.47 1010.51 1011.73 1012.52 1013.12 1015.42 1016.80 1017.39 1018.48 1019.46 1021.05
1009.95 1009.80 1009.60 1009.36 1009.06 1008.84 1008.58 1008.79 1008.42 1007.73 1007.16 1006.48 1006.20 1006.13 1006.27 1006.53 1006.63 1006.72 1006.89 1007.01 1006.98 1006.86 1006.61 1006.59 1006.13 1006.04 1005.84 1006.04 1006.54 1007.01 1007.71 1008.37 1009.30 1010.82 1011.72 1012.40 1013.33 1014.92 1015.68 1016.71 1018.40 1019.37 1020.59
1009.65 1009.29 1008.80 1008.72 1008.48 1008.39 1008.45 1007.94 1007.64 1007.01 1006.56 1006.24 1005.81 1005.60 1005.76 1006.17 1006.26 1006.33 1006.60 1006.72 1006.50 1006.62 1006.69 1006.28 1005.93 1005.94 1005.87 1005.96 1006.35 1007.01 1007.70 1008.59 1009.47 1010.47 1011.44 1012.37 1013.15 1014.09 1014.87 1016.24 1017.79 1019.37 1020.92
1008.89 1008.58 1008.27 1007.93 1007.61 1007.18 1006.90 1006.96 1006.85 1006.14 1005.83 1005.62 1005.10 1004.85 1005.04 1005.34 1005.65 1006.02 1006.21 1006.29 1006.23 1006.12 1006.27 1006.13 1005.85 1006.01 1006.20 1006.40 1006.64 1007.33 1007.99 1008.74 1009.51 1010.40 1011.04 1011.75 1012.66 1013.62 1014.68 1015.62 1017.19 1018.65 1020.69
1008.30 1007.85 1007.41 1007.01 1006.64 1006.29 1005.96 1005.63 1005.47 1005.46 1005.37 1005.07 1004.70 1004.42 1004.36 1004.67 1005.11 1005.51 1005.71 1005.80 1005.66 1005.64 1005.98 1005.88 1006.28 1006.31 1006.53 1007.01 1007.35 1007.77 1008.30 1008.99 1009.80 1010.36 1010.81 1011.76 1012.60 1013.47 1014.28 1015.69 1016.87 1017.86 1019.20
1007.56 1007.11 1006.80 1006.33 1005.93 1005.57 1005.21 1004.85 1004.79 1005.06 1005.14 1004.91 1004.59 1004.36 1004.25 1004.65 1005.01 1005.22 1005.37 1005.34 1005.52 1005.59 1006.02 1005.94 1006.34 1006.89 1006.83 1007.50 1008.06 1008.76 1009.27 1009.66 1010.35 1011.07 1011.70 1012.35 1012.68 1013.48 1014.12 1014.98 1016.60 1017.98 1019.33
1007.01 1006.60 1006.14 1005.76 1005.48 1005.26 1005.16 1004.94 1004.84 1005.10 1005.37 1005.23 1004.78 1004.60 1004.74 1004.81 1004.95 1004.94 1005.10 1005.17 1005.39 1005.60 1006.03 1006.27 1006.34 1006.95 1007.46 1007.84 1008.64 1009.18 1009.59 1010.28 1010.82 1011.35 1012.09 1012.65 1013.13 1014.05 1014.95 1015.84 1017.26 1018.22 1019.46
1007.20 1006.93 1006.53 1006.07 1005.61 1005.27 1005.50 1005.65 1005.43 1005.63 1005.61 1005.66 1005.39 1005.33 1005.10 1004.86 1004.77 1004.84 1004.89 1005.07 1005.50 1005.76 1006.38 1006.44 1006.76 1007.09 1007.51 1008.09 1008.70 1009.31 1009.81 1010.56 1011.17 1011.98 1012.54 1013.17 1013.99 1014.61 1015.49 1016.01 1016.80 1017.82 1018.84
1007.80 1007.34 1006.94 1006.59 1006.33 1006.18 1006.12 1006.29 1006.07 1005.96 1005.85 1005.57 1005.28 1004.97 1004.82 1004.62 1004.47 1004.63 1004.70 1004.75 1005.14 1005.83 1006.33 1006.74 1007.03 1007.38 1008.02 1008.40 1008.92 1009.45 1010.17 1010.84 1012.01 1012.53 1013.15 1014.09 1014.68 1015.41 1016.37 1016.61 1017.55 1017.74 1018.44
1007.84 1007.48 1007.24 1007.00 1006.69 1006.39 1006.27 1006.19 1006.02 1006.07 1005.65 1005.31 1005.03 1004.56 1004.34 1004.27 1004.31 1004.35 1004.54 1004.56 1005.05 1005.60 1006.22 1006.86 1007.29 1007.66 1008.41 1008.98 1009.49 1010.17 1011.12 1011.68 1012.37 1013.08 1013.50 1014.57 1015.42 1016.27 1017.51 1018.23 1018.67 1018.60 1018.78
1007.87 1007.46 1007.16 1006.95 1006.71 1006.58 1006.44 1006.20 1006.01 1005.78 1005.35 1004.90 1004.70 1004.24 1003.81 1003.83 1004.00 1004.23 1004.52 1004.89 1005.14 1005.58 1006.25 1007.00 1007.70 1008.32 1008.92 1009.79 1010.36 1010.92 1011.58 1012.10 1012.60 1013.15 1014.09 1015.01 1015.87 1017.13 1018.11 1018.93 1019.32 1019.68 1020.06
1007.93 1007.39 1007.14 1006.81 1006.59 1006.39 1006.19 1005.91 1005.58 1005.45 1005.18 1004.76 1004.36 1004.01 1003.83 1003.71 1003.84 1004.13 1004.61 1005.14 1005.54 1005.97 1006.38 1007.61 1008.15 1008.97 1009.60 1010.12 1010.93 1011.38 1011.78 1012.33 1012.62 1013.35 1014.41 1015.57 1016.55 1017.63 1018.32 1018.83 1019.31 1020.04 1020.64
1007.85 1007.28 1006.67 1006.40 1006.24 1006.05 1005.84 1005.64 1005.38 1005.15 1005.02 1004.67 1004.24 1003.90 1003.65 1003.51 1003.59 1003.82 1004.30 1004.97 1005.40 1005.87 1006.58 1007.90 1008.34 1008.96 1010.08 1010.53 1011.03 1011.58 1012.21 1012.73 1013.11 1013.81 1014.99 1015.70 1016.57 1017.27 1017.78 1018.55 1019.18 1019.77 1020.26
1007.75 1007.23 1006.46 1006.23 1006.08 1005.90 1005.62 1005.20 1005.03 1004.86 1004.73 1004.53 1004.24 1004.02 1003.54 1003.37 1003.39 1003.79 1004.29 1004.78 1005.36 1006.11 1006.78 1007.45 1008.12 1008.93 1009.71 1010.36 1010.84 1011.60 1012.28 1012.76 1013.15 1013.94 1014.65 1015.44 1016.24 1016.99 1017.69 1018.30 1018.86 1019.41 1020.03
1007.72 1007.11 1006.51 1006.20 1005.99 1005.75 1005.43 1005.14 1004.70 1004.36 1004.33 1004.09 1003.86 1003.57 1003.29 1003.26 1003.34 1003.68 1004.25 1004.82 1005.48 1006.11 1006.53 1007.38 1008.18 1009.07 1009.58 1010.53 1011.13 1011.68 1012.25 1012.80 1013.40 1013.99 1014.69 1015.31 1016.13 1016.83 1017.57 1018.12 1018.87 1019.33 1019.84
1007.74 1007.20 1006.77 1006.37 1006.03 1005.68 1005.38 1005.10 1004.81 1004.46 1004.04 1003.72 1003.64 1003.46 1003.14 1003.13 1003.30 1003.76 1004.45 1005.28 1006.00 1006.19 1006.57 1007.26 1008.16 1009.13 1009.90 1010.63 1011.14 1011.68 1012.39 1013.15 1013.61 1014.25 1014.86 1015.48 1016.20 1016.90 1017.55 1017.99 1018.62 1019.24 1019.73
1007.60 1007.16 1006.79 1006.40 1006.02 1005.71 1005.37 1005.01 1004.77 1004.43 1004.11 1003.87 1003.64 1003.52 1003.28 1003.28 1003.62 1004.14 1004.75 1005.13 1005.62 1006.13 1006.78 1007.47 1008.32 1009.05 1009.79 1010.49 1011.09 1011.79 1012.55 1013.22 1013.89 1014.44 1015.07 1015.78 1016.31 1016.66 1017.33 1017.80 1018.40 1019.11 1019.85
1007.26 1006.92 1006.71 1006.35 1005.84 1005.56 1005.20 1004.89 1004.63 1004.44 1004.21 1004.04 1003.90 1003.92 1003.98 1004.12 1004.40 1004.94 1005.24 1005.56 1005.92 1006.49 1007.13 1007.68 1008.51 1009.16 1009.93 1010.64 1011.29 1012.12 1012.89 1013.52 1013.97 1014.43 1015.23 1015.83 1016.43 1017.03 1017.49 1018.05 1018.58 1019.07 1019.62
1007.11 1006.61 1006.31 1006.04 1005.65 1005.35 1005.13 1004.84 1004.64 1004.42 1004.33 1004.30 1004.46 1004.66 1004.72 1004.77 1005.09 1005.42 1005.71 1006.11 1006.47 1006.94 1007.53 1008.18 1008.89 1009.59 1010.37 1011.06 1011.63 1012.29 1012.96 1013.50 1014.20 1014.88 1015.48 1016.04 1016.68 1017.35 1017.70 1017.95 1018.45 1019.00 1019.42
1006.97 1006.43 1005.99 1005.60 1005.35 1005.22 1005.09 1004.92 1004.66 1004.50 1004.49 1004.57 1004.92 1005.28 1005.43 1005.52 1005.80 1006.09 1006.43 1006.80 1007.17 1007.58 1008.01 1008.58 1009.27 1009.94 1010.55 1011.14 1011.79 1012.44 1013.06 1013.67 1014.30 1014.79 1015.39 1016.10 1016.72 1017.27 1017.63 1018.12 1018.58 1018.94 1019.22
1006.75 1006.18 1005.75 1005.33 1005.10 1005.05 1004.99 1004.90 1004.73 1004.64 1004.63 1004.84 1005.11 1005.47 1005.68 1005.89 1006.13 1006.42 1006.78 1007.17 1007.57 1008.02 1008.52 1008.99 1009.51 1010.13 1010.78 1011.34 1011.92 1012.43 1012.97 1013.53 1014.13 1014.72 1015.32 1016.03 1016.72 1017.28 1017.75 1018.03 1018.37 1018.88 1019.33
1006.57 1006.11 1005.56 1005.08 1004.88 1004.81 1004.71 1004.69 1004.70 1004.65 1004.70 1004.96 1005.25 1005.48 1005.70 1006.02 1006.36 1006.73 1007.17 1007.60 1007.99 1008.40 1008.81 1009.25 1009.75 1010.34 1010.98 1011.57 1012.10 1012.58 1012.95 1013.60 1014.23 1014.90 1015.45 1016.15 1016.70 1017.29 1017.68 1017.99 1018.42 1019.01 1019.51
1006.37 1005.84 1005.31 1004.82 1004.55 1004.43 1004.45 1004.45 1004.47 1004.50 1004.67 1004.90 1005.13 1005.38 1005.77 1006.14 1006.54 1007.01 1007.48 1007.93 1008.36 1008.72 1009.16 1009.61 1010.09 1010.69 1011.27 1011.80 1012.28 1012.69 1013.42 1013.98 1014.66 1015.32 1015.92 1016.31 1016.82 1017.36 1017.89 1018.51 1018.96 1019.29 1019.70
1006.06 1005.46 1004.93 1004.49 1004.17 1004.03 1004.05 1004.04 1004.13 1004.28 1004.44 1004.67 1004.93 1005.28 1005.68 1006.11 1006.56 1007.06 1007.58 1008.02 1008.53 1009.05 1009.55 1010.04 1010.50 1011.05 1011.63 1012.13 1012.69 1013.41 1013.99 1014.62 1015.32 1015.85 1016.28 1016.68 1017.28 1017.88 1018.45 1018.98 1019.45 1019.84 1020.01
Wind_Speed
12 12 11 10 11 12 12 13 12 11 13 12 12 13 12 12 11 10 10 11 9 10 13 14 16 18 13 14 13 13 14 11 12 9 13 15 18 16 16 14 14 12 9
13 13 12 12 11 11 12 12 11 12 13 13 13 14 10 13 12 11 11 10 10 10 12 14 15 12 18 16 14 18 15 14 10 16 15 15 18 16 17 15 14 12 12
13 14 14 13 13 12 13 16 16 15 14 13 12 13 8 9 10 12 11 11 10 10 10 12 13 12 13 11 12 13 12 11 9 10 11 13 14 13 16 13 14 12 11
15 15 15 15 14 13 11 11 16 15 15 15 13 11 10 11 11 9 10 11 8 7 8 10 12 11 12 11 11 13 10 10 11 13 11 14 15 15 14 13 12 9 10
17 19 16 15 14 12 12 10 13 14 13 15 13 12 10 10 8 9 7 7 6 9 6 6 6 8 12 10 8 9 11 11 11 12 11 12 13 14 16 11 12 10 10
19 19 19 18 18 16 14 11 12 13 13 13 13 13 11 7 7 10 9 7 7 7 5 3 2 7 5 8 9 9 11 13 12 10 8 13 14 13 10 13 12 13 8
21 21 21 20 19 18 18 17 14 12 14 15 13 14 13 12 7 9 11 6 5 5 5 4 3 3 8 6 10 11 10 13 5 6 12 12 11 12 12 13 13 13 7
22 21 20 20 20 19 18 16 12 12 13 13 13 13 11 8 3 9 11 8 4 4 5 7 7 4 8 10 9 10 8 8 8 6 8 7 8 11 13 14 14 10 7
21 22 22 19 18 17 17 15 13 12 12 13 13 12 11 9 6 9 8 5 4 4 4 4 8 8 13 18 9 10 10 8 8 13 12 15 18 18 13 10 9 8 8
19 18 19 18 18 14 15 15 11 11 11 9 10 10 13 11 7 10 11 4 5 4 4 4 9 11 16 17 11 11 11 9 12 12 10 12 13 14 16 9 10 10 9
20 20 17 15 15 14 14 14 12 11 11 12 11 8 9 9 7 11 14 6 5 5 5 5 5 18 16 16 13 9 11 12 13 12 11 9 9 9 6 6 5 4 8
17 17 15 13 11 11 14 13 8 11 11 11 11 8 6 4 7 10 13 9 10 7 6 5 8 19 16 16 13 22 19 13 10 10 10 9 8 8 7 9 10 10 8
17 14 11 13 12 11 11 10 8 8 9 10 9 9 8 3 3 8 11 11 11 7 6 9 17 18 18 17 24 21 13 9 9 10 9 9 8 8 10 9 9 11 11
14 10 10 9 9 8 7 7 6 6 7 7 8 6 6 4 3 4 5 7 12 9 16 13 13 11 11 15 13 9 8 8 8 9 9 9 9 8 8 7 7 7 7
12 11 10 4 6 7 6 6 6 6 6 6 6 6 7 5 4 8 10 8 8 11 14 11 10 11 10 9 7 8 8 8 8 9 10 9 8 8 8 7 7 7 5
10 8 7 4 4 4 6 6 9 12 10 12 13 10 5 6 8 13 15 16 18 20 11 10 10 10 10 9 9 9 8 9 9 9 9 8 8 8 8 7 6 6 5
10 9 6 4 4 5 5 6 7 4 10 9 10 11 11 5 11 15 16 19 24 17 10 9 10 9 9 9 9 9 9 7 8 8 8 8 8 8 9 7 6 5 5
8 8 5 5 5 5 5 5 5 6 6 3 2 6 6 8 13 17 19 19 11 8 9 10 10 10 9 9 9 9 9 8 8 8 8 8 7 7 8 7 6 5 5
7 5 5 5 5 4 5 4 4 4 4 4 3 2 3 6 14 19 23 10 9 8 8 10 10 10 9 9 9 8 9 8 8 8 8 8 6 7 6 5 6 6 5
6 7 6 6 5 4 4 4 3 3 3 3 2 4 4 8 7 10 5 6 7 8 8 9 9 9 9 9 9 9 8 8 8 7 7 6 6 5 6 6 5 5 6
7 6 5 7 6 4 4 4 3 2 0 2 4 4 5 6 6 5 6 6 7 8 9 9 9 9 8 9 9 9 9 8 8 7 7 7 7 6 5 4 4 5 5
8 7 6 6 5 5 4 4 3 2 2 4 5 6 6 5 6 6 7 6 6 7 7 8 8 8 9 9 9 8 9 8 8 7 7 7 7 5 4 4 4 5 5
9 8 7 6 5 4 4 4 4 4 4 5 6 6 5 5 5 6 7 7 7 7 7 7 8 8 7 7 7 7 8 8 7 6 7 7 6 5 5 5 4 5 5
10 9 8 6 4 5 5 4 4 5 5 6 6 5 5 6 6 7 7 6 7 7 7 7 8 10 9 8 7 6 6 7 6 6 8 7 6 5 3 3 4 3 4
10 9 8 7 6 5 5 5 5 5 5 5 6 6 6 6 7 7 7 6 6 7 8 7 7 11 11 11 9 8 11 12 9 8 5 5 4 3 2 2 3 4 5
11 10 8 7 6 6 6 6 6 6 6 6 6 6 7 7 7 7 7 8 8 8 9 7 10 13 13 11 12 14 13 12 10 9 6 5 5 4 3 4 5 4 6
Wind_Direction
296 303 305 300 286 277 270 269 272 269 275 277 279 288 286 284 284 280 280 283 257 256 249 237 223 212 207 201 201 201 212 213 204 189 184 172 174 166 166 164 155 161 163
318 314 318 309 313 314 298 283 297 301 297 284 283 282 283 282 284 282 279 275 270 253 256 253 237 217 214 208 205 208 207 199 191 186 178 173 166 155 164 158 153 161 167
303 306 302 306 311 315 326 330 319 312 302 295 296 291 296 276 277 274 275 278 269 263 256 257 249 230 214 202 202 203 199 191 188 171 169 166 153 158 166 165 160 160 165
309 302 308 315 314 302 295 299 301 303 302 296 294 288 283 281 269 256 268 271 260 258 263 255 248 227 211 198 193 191 184 167 165 160 161 162 161 165 167 155 161 157 148
291 295 293 288 282 286 293 287 290 290 281 286 287 285 285 275 267 260 238 234 241 257 235 241 245 234 218 198 183 178 163 162 162 163 167 167 167 166 173 163 159 142 147
291 290 289 288 287 285 273 267 274 269 284 289 291 292 285 272 243 232 234 230 216 216 229 228 209 182 130 127 116 152 170 173 164 162 167 170 170 170 157 160 151 149 142
289 288 288 287 283 284 283 281 277 291 299 292 290 291 285 283 196 219 223 229 208 197 193 141 105 140 122 117 99 92 88 87 107 149 164 173 163 161 145 146 153 155 146
287 286 284 288 293 290 285 281 288 291 289 296 295 294 293 293 216 224 221 220 198 177 198 160 140 124 132 124 115 109 102 108 124 121 155 157 148 149 156 152 149 130 112
298 295 291 288 287 293 302 306 305 303 295 293 299 308 303 288 244 245 192 193 177 161 152 161 141 125 132 126 123 120 110 92 108 128 134 131 131 132 134 129 143 140 133
302 305 305 308 306 302 318 306 293 286 286 294 292 289 286 288 254 231 199 167 157 140 124 134 153 138 134 131 131 127 115 114 109 100 94 113 136 144 146 154 146 144 139
310 305 306 305 298 308 299 288 294 285 281 277 275 272 278 275 273 230 196 175 166 147 148 141 140 135 138 129 120 121 119 114 105 100 94 89 86 79 72 98 113 158 159
301 303 306 300 304 298 290 286 263 270 274 277 277 271 262 240 240 224 203 178 155 148 147 132 139 134 132 124 115 119 118 116 115 110 107 104 100 94 83 71 70 65 56
302 303 287 288 288 296 284 280 274 266 268 276 270 271 273 200 219 217 182 158 151 130 127 128 132 127 122 117 127 127 125 126 122 118 117 119 115 108 106 97 86 84 80
295 286 287 270 281 278 265 265 267 273 270 271 271 266 271 248 183 150 147 143 129 121 122 127 127 115 114 123 124 127 121 123 124 122 119 111 113 128 130 129 125 122 114
304 297 291 256 263 272 261 262 260 257 262 282 280 274 268 236 205 174 161 157 152 141 130 136 134 128 132 134 125 121 124 132 130 124 129 130 135 140 134 143 142 149 164
288 296 287 280 271 264 274 286 245 251 271 284 279 264 269 249 185 177 168 154 144 143 139 148 140 138 139 138 134 133 136 138 132 134 135 141 147 148 145 153 151 162 183
307 300 302 280 281 285 282 285 300 263 255 278 290 287 259 232 189 170 159 150 147 146 146 145 142 139 134 135 137 139 142 135 132 138 144 143 151 147 151 157 163 177 190
313 306 304 306 297 290 298 299 301 300 308 304 291 314 271 223 181 159 150 144 153 154 143 141 136 136 137 142 144 143 143 141 147 148 144 143 152 149 168 162 173 189 206
311 309 306 291 287 302 292 290 292 306 318 326 314 346 316 176 152 148 151 155 157 144 141 137 135 138 140 143 141 138 136 148 146 147 142 153 157 159 168 180 184 189 213
300 279 285 294 291 277 284 289 293 295 312 340 39 75 91 119 132 145 148 142 128 129 130 128 131 130 134 136 135 135 141 146 143 146 143 151 157 179 175 184 194 199 200
313 300 278 284 283 286 287 276 277 277 305 79 96 82 82 118 121 117 111 115 121 127 128 130 132 131 134 138 140 146 149 150 155 161 155 163 162 178 195 183 205 222 246
309 298 282 274 280 273 271 272 253 235 163 128 118 108 99 104 115 117 114 113 114 118 124 131 135 140 144 146 147 150 149 156 158 160 157 158 165 170 181 202 227 245 263
311 303 290 278 267 262 245 247 236 206 175 144 142 147 148 136 136 134 128 126 128 129 132 134 135 137 136 139 143 151 155 158 154 153 156 157 160 179 191 221 236 246 256
307 307 296 278 256 254 245 223 225 206 182 161 162 164 150 141 129 123 121 120 122 125 130 132 132 134 131 132 140 147 142 129 135 142 148 158 179 159 241 260 239 269 300
307 299 288 276 261 240 244 222 211 198 183 175 173 160 143 139 134 137 134 132 130 133 129 129 134 140 143 148 145 139 121 129 132 137 156 159 176 173 197 230 290 291 288
303 296 292 274 262 238 233 222 209 197 187 179 169 158 160 156 152 150 149 148 151 147 149 143 147 153 151 150 140 130 132 121 127 140 147 147 155 177 191 210 221 253 267